Harrisburg, IL

11:37 PM CST on December 10, 2019 (GMT -0600)
Harrisburg-Raleigh

Weather History for KHSB - October, 2019

Change the Weather History Date:

Friday, October 11, 2019

  Actual Average (WUND) Record (WUND)
Temperature  
Mean Temperature 54 °F -  
Max Temperature 72 °F - - (-1)
Min Temperature 37 °F - - (-1)
Degree Days  
Heating Degree Days 10    
Growing Degree Days 4 (Base 50)    
Moisture  
Dew Point 53 °F    
Average Humidity 86    
Maximum Humidity 90    
Minimum Humidity 75    
Precipitation  
Precipitation 0.66 in - - ()
Sea Level Pressure  
Sea Level Pressure 30.03 in    
Wind  
Wind Speed 6 mph ()    
Max Wind Speed 17 mph    
Max Gust Speed 23 mph    
Visibility 8.0 miles    
Events Rain , Thunderstorm    
Averages and records for this station are not official NWS values.
T = Trace of Precipitation, MM = Missing Value Source: Averaged Metar Reports

Daily Weather History Graph

Daily Weather History Graph

Search for Another Location

Airport or City:

Astronomy

Oct. 11, 2019 Rise Set
Actual Time 6:58 AM CDT 6:22 PM CDT
Civil Twilight 6:32 AM CDT 6:48 PM CDT
Nautical Twilight 6:01 AM CDT 7:19 PM CDT
Astronomical Twilight 5:31 AM CDT 7:49 PM CDT
Moon 5:48 PM CDT 4:42 AM CDT
Length of Visible Light 12h 16m
Length of Day
11h 24m
Waxing Gibbous, 96% of the Moon is Illuminated
Oct 11
Waxing Gibbous
Oct 13
Full
Oct 21
Last Quarter
Oct 27
New
Nov 4
First Quarter

Hourly Weather History & Observations

Time (CDT) Temp. Windchill Dew Point Humidity Pressure Visibility Wind Dir Wind Speed Gust Speed Precip Events Conditions
12:15 AM 72.7 °F - 65.3 °F 78% 29.96 in 10.0 mi South 6.9 mph - N/A   Clear
12:35 AM 72.5 °F - 65.3 °F 78% 29.95 in 10.0 mi South 4.6 mph - N/A   Clear
12:55 AM 72.5 °F - 65.3 °F 78% 29.95 in 10.0 mi South 6.9 mph - N/A   Clear
1:15 AM 72.0 °F - 64.9 °F 78% 29.95 in 10.0 mi South 6.9 mph - N/A   Scattered Clouds
1:35 AM 72.3 °F - 64.8 °F 77% 29.94 in 10.0 mi SE 5.8 mph - N/A   Mostly Cloudy
1:55 AM 71.6 °F - 64.6 °F 78% 29.94 in 10.0 mi South 5.8 mph - N/A   Mostly Cloudy
2:15 AM 71.6 °F - 64.4 °F 78% 29.92 in 10.0 mi SSW 5.8 mph - N/A   Mostly Cloudy
2:35 AM 71.6 °F - 63.9 °F 76% 29.92 in 10.0 mi South 6.9 mph - N/A   Mostly Cloudy
2:55 AM 72.0 °F - 63.5 °F 75% 29.91 in 10.0 mi South 6.9 mph - N/A   Overcast
3:15 AM 71.6 °F - 63.5 °F 76% 29.91 in 10.0 mi South 6.9 mph - N/A   Overcast
3:35 AM 69.1 °F - 64.8 °F 86% 29.92 in 4.0 mi South 11.5 mph 21.9 mph 0.01 in Rain Light Rain
3:55 AM 68.7 °F - 65.3 °F 89% 29.93 in 10.0 mi SW 4.6 mph - 0.01 in Rain Light Rain
4:15 AM 67.6 °F - 64.4 °F 89% 29.93 in 1.8 mi South 3.5 mph - N/A Rain Heavy Rain
4:35 AM 67.1 °F - 63.9 °F 89% 29.92 in 4.0 mi Calm Calm - N/A Rain , Thunderstorm Light Thunderstorms and Rain
4:55 AM 66.9 °F - 63.5 °F 89% 29.92 in 10.0 mi Calm Calm - N/A   Overcast
5:15 AM 67.1 °F - 63.7 °F 89% 29.92 in 10.0 mi Calm Calm - N/A   Overcast
5:35 AM 66.7 °F - 63.5 °F 89% 29.92 in 10.0 mi Calm Calm - N/A   Mostly Cloudy
5:55 AM 66.2 °F - 63.0 °F 89% 29.92 in 10.0 mi Calm Calm - N/A   Scattered Clouds
6:15 AM 66.4 °F - 63.1 °F 89% 29.92 in 10.0 mi Calm Calm - N/A   Scattered Clouds
6:35 AM 66.6 °F - 63.5 °F 90% 29.93 in 10.0 mi SSE 3.5 mph - N/A   Mostly Cloudy
6:55 AM 67.6 °F - 64.4 °F 89% 29.94 in 10.0 mi Calm Calm - N/A Thunderstorm Thunderstorm
7:15 AM 67.6 °F - 64.0 °F 88% 29.94 in 10.0 mi Calm Calm - N/A   Overcast
7:35 AM 67.6 °F - 64.4 °F 89% 29.95 in 10.0 mi WNW 3.5 mph - 0.01 in   Overcast
7:55 AM 67.5 °F - 64.4 °F 90% 29.95 in 10.0 mi Calm Calm - 0.01 in   Light Drizzle
8:15 AM 67.8 °F - 64.4 °F 89% 29.95 in 7.0 mi NW 4.6 mph - N/A Rain Rain
8:35 AM 67.5 °F - 64.4 °F 90% 29.96 in 10.0 mi Calm Calm - N/A   Overcast
8:55 AM 67.6 °F - 64.4 °F 89% 29.97 in 7.0 mi SSE 3.5 mph - N/A Rain Rain
9:15 AM 67.1 °F - 63.7 °F 89% 29.97 in 0.8 mi Calm Calm - 0.25 in Rain Heavy Rain
9:35 AM 66.9 °F - 63.5 °F 89% 29.97 in 7.0 mi South 6.9 mph - 0.30 in Rain Rain
9:55 AM 67.1 °F - 63.9 °F 89% 29.98 in 7.0 mi SSW 10.4 mph - 0.34 in Rain Heavy Rain
10:15 AM 67.1 °F - 63.9 °F 89% 29.97 in 5.0 mi South 6.9 mph - 0.05 in Rain Rain
10:35 AM 67.5 °F - 64.4 °F 90% 29.97 in 10.0 mi SSW 4.6 mph - 0.07 in Rain Rain
10:55 AM 67.5 °F - 64.2 °F 89% 29.97 in 3.0 mi Calm Calm - 0.12 in Rain Heavy Rain
11:15 AM 67.6 °F - 64.4 °F 89% 29.96 in 5.0 mi South 3.5 mph - 0.02 in Rain Rain
11:35 AM 58.6 °F - 55.4 °F 89% 29.97 in 3.0 mi NW 12.7 mph 19.6 mph 0.10 in Rain Heavy Rain
11:55 AM 55.2 °F - 52.0 °F 89% 29.98 in 4.0 mi NW 16.1 mph 21.9 mph 0.17 in Rain Rain
12:15 PM 54.0 °F - 50.9 °F 89% 30.00 in 4.0 mi WNW 17.3 mph 23.0 mph N/A   Drizzle
12:35 PM 53.6 °F - 50.5 °F 89% 30.00 in 2.0 mi NW 12.7 mph - 0.01 in   Drizzle
12:55 PM 53.6 °F - 50.4 °F 89% 30.01 in 3.0 mi WNW 11.5 mph - 0.01 in   Light Drizzle
1:15 PM 52.5 °F - 49.3 °F 89% 30.00 in 10.0 mi NW 12.7 mph 23.0 mph N/A   Overcast
1:35 PM 51.8 °F - 48.9 °F 90% 30.01 in 10.0 mi WNW 13.8 mph 19.6 mph N/A   Overcast
1:55 PM 50.0 °F - 47.1 °F 90% 30.03 in 7.0 mi WNW 17.3 mph 23.0 mph N/A   Overcast
2:15 PM 49.5 °F - 46.4 °F 89% 30.03 in 10.0 mi WNW 11.5 mph 19.6 mph N/A   Overcast
2:35 PM 48.6 °F - 45.5 °F 89% 30.03 in 5.0 mi NW 13.8 mph 19.6 mph N/A Rain Rain
2:55 PM 48.7 °F - 45.5 °F 89% 30.05 in 7.0 mi NW 12.7 mph 20.7 mph N/A   Overcast
3:15 PM 48.4 °F - 45.5 °F 90% 30.06 in 3.0 mi WNW 12.7 mph 19.6 mph N/A   Drizzle
3:35 PM 47.3 °F - 44.2 °F 89% 30.07 in 2.0 mi WNW 12.7 mph 19.6 mph N/A   Drizzle
3:55 PM 46.8 °F - 43.9 °F 90% 30.07 in 3.0 mi NW 9.2 mph 18.4 mph N/A Rain Light Rain
4:35 PM 46.8 °F - 43.7 °F 89% 30.10 in 7.0 mi NW 10.4 mph 16.1 mph N/A   Overcast
4:55 PM 46.4 °F 40.7 °F 43.3 °F 89% 30.10 in 1.8 mi WNW 12.7 mph 16.1 mph N/A Rain Light Rain
5:15 PM 45.9 °F 39.4 °F 42.8 °F 89% 30.11 in 10.0 mi NW 15.0 mph 23.0 mph N/A   Overcast
5:35 PM 46.0 °F 41.4 °F 42.3 °F 87% 30.13 in 10.0 mi NW 9.2 mph 17.3 mph N/A   Overcast
5:55 PM 46.0 °F 41.4 °F 42.3 °F 87% 30.14 in 10.0 mi NW 9.2 mph - N/A   Overcast
6:15 PM 46.0 °F 40.6 °F 41.0 °F 83% 30.13 in 10.0 mi NW 11.5 mph - N/A   Overcast
6:35 PM 46.0 °F 43.1 °F 40.8 °F 82% 30.14 in 10.0 mi NW 5.8 mph - N/A   Overcast
6:55 PM 46.4 °F 43.5 °F 40.8 °F 81% 30.15 in 10.0 mi NW 5.8 mph - N/A   Overcast
7:15 PM 46.4 °F 44.3 °F 41.0 °F 81% 30.16 in 10.0 mi West 4.6 mph - N/A   Overcast
7:55 PM 45.9 °F 41.7 °F 39.4 °F 78% 30.17 in 10.0 mi NW 8.1 mph - N/A   Mostly Cloudy
8:15 PM 44.8 °F 41.6 °F 37.9 °F 77% 30.17 in 10.0 mi NW 5.8 mph - N/A   Clear
8:35 PM 44.1 °F 41.5 °F 37.9 °F 79% 30.18 in 10.0 mi NW 4.6 mph - N/A   Clear
8:55 PM 43.2 °F 40.5 °F 38.1 °F 82% 30.18 in 10.0 mi NW 4.6 mph - N/A   Clear
9:15 PM 42.3 °F 40.5 °F 38.3 °F 86% 30.19 in 10.0 mi WNW 3.5 mph - N/A   Clear
9:35 PM 41.9 °F 40.0 °F 37.9 °F 86% 30.20 in 10.0 mi WNW 3.5 mph - N/A   Clear
9:55 PM 41.2 °F 39.2 °F 37.6 °F 87% 30.20 in 10.0 mi WNW 3.5 mph - N/A   Clear
10:15 PM 41.0 °F - 37.9 °F 89% 30.21 in 10.0 mi Calm Calm - N/A   Clear
10:35 PM 40.6 °F - 37.6 °F 89% 30.21 in 10.0 mi Calm Calm - N/A   Clear
10:55 PM 39.7 °F - 36.9 °F 89% 30.22 in 10.0 mi Calm Calm - N/A   Clear
11:15 PM 37.8 °F - 34.9 °F 89% 30.22 in 10.0 mi Calm Calm - N/A   Clear
11:35 PM 38.7 °F - 35.8 °F 89% 30.22 in 10.0 mi Calm Calm - N/A   Clear
11:55 PM 38.3 °F - 35.6 °F 90% 30.22 in 10.0 mi Calm Calm - N/A   Clear